STARLINK-1802, 46702

Orbit data source: Space-Track

STARLINK-1802, 46702 is a payload satellite owned by SpaceX/Seattle (US) in LEO that was launched on Sun, 18 Oct 2020 UTC via an FALCON 9 launch vehicle from the Air Force Eastern Test Range (AFETR). Payload-class satellites include a variety of spacecraft equipped with specific instruments for various scientific and technological missions. These include communications satellites like Starlink; space stations such as the ISS; scientific satellites like the Hubble; Earth observation satellites from companies like Planet Labs, Umbra, and HawkEye 360; GPS; miniature CubeSats for education and research; and military/defense satellites.

Loading next visibility...
Identifier
46702, 2020-073AJ
Orbit
LEO
Country
Flag of USUS
Related business
Manufacturer
SpaceX/Seattle
Mission
Operational Commercial Communications
Bus & Motor
STARLINK, Unknown motor
Mass
260 kg wet, ~248 kg dry
Launch date (UTC)
2020-10-18 (5 years ago)
Launch vehicle
FALCON 9
Launch site
Air Force Eastern Test Range (AFETR)
Object type
Payload
Rocket body
Debris
Shape & HBR
Box + 1 Pan, 4.4 m
Radar Cross Section
13.562 m², Large (>1 m²)

Expand to show TLE details & history
Last TLE update: 14 hours ago

TLE from 14 hours ago
0 STARLINK-1802
1 46702U 20073AJ  25258.35237343  .00004033  00000-0  28944-3 0  9993
2 46702  53.0521 288.7368 0001236  89.0286 271.0845 15.06408618270986
Epoch: 2025-09-15T08:27Z
TLE epoch observation values (Epoch: 2025-09-15T08:27:25.064Z)
Latitude
0.00002°
Longitude
167.32412°
Altitude
548.048 km
Speed
7.589 km/s
True Right ascension
19h 14m 56s
True Declination
0° 00' 00"
Sunlit
Object was in full shadow at epoch
Visualization orbit readout
Latitude
Unknown
Longitude
Unknown
Altitude
Unknown
Speed
Unknown
Apparent Right ascension
Unknown
Apparent Declination
Unknown
Sunlit
N/A
Visualization observer readout
Local Sidereal Time
14:55:09
Azimuth
Unknown
Elevation
Unknown
Doppler factor
Unknown
Orbital elements
Apogee altitude
548.312 km
Perigee altitude
546.6 km
Semi-major axis
6,925.593 km
Eccentricity
0.00012
Inclination
53.0521°
RAAN
288.7368°
Arg. of periapsis
89.0286°
True anomaly
271.07034°
Mean anomaly
271.0845°
Eccentric anomaly
271.07742°
Mean motion
3.7658 °/min
Orbital period
95.6 mins
BSTAR
0.00028944
Loading maneuver chart data...
Computing Atmospheric mass density...
Loading historical data...
Loading historical data...
Loading historical data...
Loading historical data...
Loading historical data...
Loading historical data...
Loading historical data...

Documentation

Showing up to 5 results
|